Vertical_Velocity
-0 -2 -29 -11 9 6 4 1 2 2 0 2 2 -0 0 -0 0 -1 -0 -1 -1 -0 -1 -1 -0 -0 -1 -0 -1 1 -0 -1 -1 -0 -0 0 -1 -0 0 1 -0 0 0 0
6 -29 16 15 9 1 0 2 0 1 0 2 -2 -3 -1 -1 -0 -1 0 -1 1 -1 -0 -0 -0 -0 -0 -1 -1 -0 0 -0 -1 -0 -0 -1 -0 1 0 1 1 0 1 2
-8 -6 1 1 4 2 2 1 -4 -5 -3 1 3 0 -2 -2 -0 -1 -1 -1 0 -1 -1 -0 0 0 0 -0 -0 0 1 0 -0 -1 -1 -1 -1 0 0 -0 0 -0 0 1
7 6 -1 3 2 4 1 -0 5 3 1 -5 4 -6 -3 -1 -1 -2 -1 -1 -1 -0 -1 1 1 0 0 -0 -0 -1 0 -0 -1 -0 -1 -1 -1 0 -1 -0 -0 0 -1 -1
-10 -5 -1 4 -15 4 -2 1 1 4 3 3 -0 2 -12 -3 -6 -4 -2 -0 -1 0 0 1 -0 -0 0 0 -1 -0 1 -0 -1 -1 -1 -1 -0 -0 -1 -0 -1 -0 -1 -1
3 3 4 5 2 14 6 4 7 6 7 2 -2 1 -9 -4 -2 -0 -3 -2 -1 -0 -0 0 -0 0 0 0 -0 -1 -0 -0 -0 0 -0 -1 -1 -0 -1 -1 -1 -1 -1 -1
5 -1 2 4 9 5 11 6 -0 2 5 -6 -2 11 -11 0 1 1 4 3 0 -0 -1 0 -0 -0 -0 1 -0 -1 -1 -0 -0 -0 1 -0 -0 -0 -0 -1 -1 -1 -1 -1
-3 7 -1 1 -3 -22 -14 -10 -12 -6 -2 -2 -0 -5 -12 -3 -2 -1 -1 -3 -2 -0 0 0 -0 -0 -0 -0 0 -1 -0 -0 0 -0 0 -0 -0 -0 -1 -1 -1 -1 -1 -1
0 2 3 1 6 0 -9 4 5 4 4 1 -1 1 -3 -2 -3 -3 -3 -0 0 1 1 -0 0 -0 -0 0 0 -0 0 0 0 0 0 -0 -0 -0 -1 -0 -1 -1 -1 -1
1 -1 -11 10 9 9 2 4 10 4 -1 0 -0 -3 -9 -9 -4 -2 -3 0 1 0 -0 0 0 0 0 1 0 0 0 0 0 -0 -0 -0 -1 -1 -1 -1 -0 -0 -0 -0
5 7 3 8 -4 4 2 3 8 1 5 -4 -1 -7 -6 -1 1 1 4 0 0 1 1 1 1 0 0 0 -0 -0 0 -0 -1 -1 -1 -0 -1 -1 -1 -1 -2 -2 -2 -2
1 8 -1 -2 -0 3 -12 -0 6 4 -4 4 -0 -6 -1 -2 0 1 1 1 0 -0 -0 -0 -0 -0 0 0 0 0 0 -0 -0 -0 -0 -1 -1 -2 -2 -2 -2 -2 -2 -2
-7 5 2 2 4 2 5 3 -7 -3 0 -4 -1 -5 -5 -2 -2 -3 -2 -0 -0 0 0 0 0 1 0 0 0 -0 -0 -0 -1 -1 -1 -1 -2 -3 -3 -2 -3 -2 -3 -2
12 -0 -7 -12 -3 -3 -6 -7 1 13 5 -5 -11 -5 -6 -5 -1 -2 -3 -2 -1 -0 0 1 0 -0 -0 -0 0 -0 -1 -2 -2 -2 -2 -2 -2 -1 -1 -2 -3 -3 -2 -2
5 -5 -1 -0 2 4 1 1 -3 -6 -0 -3 -3 0 1 4 3 3 3 -1 0 2 1 1 0 0 0 -0 -1 -1 -1 -1 -1 -2 -1 -1 -1 -1 -2 -2 -3 -3 -3 -3
6 4 2 1 2 1 -3 -2 1 -1 3 4 -0 -2 -0 -0 -0 -0 2 2 2 1 -0 0 1 0 -0 0 0 0 -0 -1 -1 -2 -2 -3 -3 -2 -1 -1 -1 -1 -2 -2
10 1 6 3 4 5 5 -3 -1 -2 0 1 1 -2 -1 -2 -0 2 3 1 2 1 1 1 1 2 0 -1 -0 -0 -1 -1 -2 -2 -2 -2 -1 -2 -2 -2 -2 -2 -2 -2
-2 6 3 -0 3 2 -1 -1 1 1 2 1 1 -2 -1 3 4 2 -1 0 1 0 0 -1 -1 -1 -1 -2 -1 -1 -0 -0 -1 -2 -2 -1 -1 -1 -2 -1 -2 -3 -3 -4
7 6 -3 -4 -2 -2 -0 -3 -4 -1 -2 -1 -1 -2 1 -1 1 1 -1 -0 -1 -1 -1 -1 -1 -1 -2 -1 -1 -3 -4 -3 -2 -3 -1 -2 -3 -2 -3 -2 -2 -3 -3 -1
5 8 -1 -2 -2 -3 -3 4 1 1 1 0 0 1 2 -0 -1 1 0 -1 -0 -1 -2 -2 -1 -2 -3 -4 -3 -2 -4 -3 -5 -3 -2 -3 -4 -3 -3 -4 -3 -3 -4 -3
-5 9 -3 -1 -1 -0 -1 4 2 1 -3 1 0 2 -1 -0 -1 -1 0 -0 -1 -1 -0 -0 -1 -2 -3 -3 -1 -1 -2 -2 -3 -1 -1 -2 -3 -4 -3 -2 -2 -3 -3 -5
-1 -2 1 -1 -1 -3 0 4 0 -1 0 3 -2 -1 -2 -0 0 -0 -1 -1 -0 -0 -0 -1 -0 -0 -2 -3 -1 -0 1 -4 -2 -3 -1 -1 -1 -1 -2 -5 2 -2 -2 -4
0 1 -1 -4 -1 2 3 3 1 1 7 -2 0 -2 -2 -1 -0 -1 -0 -0 0 0 -0 -0 0 2 -1 -2 -4 1 1 -2 -2 -1 1 0 -2 -1 -0 -4 -1 -3 -0 -2
-1 1 2 -3 3 3 4 3 -0 -1 3 -1 -1 1 -1 -1 1 1 0 -0 -2 -2 -2 -2 -2 -1 2 -3 -1 -4 -1 -4 -3 -2 -0 1 -1 0 1 -0 -0 -3 -0 -2
-1 0 1 -0 -0 1 3 5 3 1 -0 -0 -1 -1 -1 -1 -2 -2 -1 -2 -2 -1 -2 -2 -2 -1 -0 -2 0 -3 -3 -5 -2 -3 1 2 -1 1 2 2 -0 -3 4 -4
1 -0 1 2 3 0 0 -0 1 0 -0 -1 -1 -1 -1 -1 -0 -1 -2 -2 -1 -2 -3 -2 -3 -3 -2 -2 0 -1 -2 -4 -2 -1 1 1 -3 1 0 -2 0 9 -1 -1
Height
3055 3057 3057 3061 3067 3072 3077 3081 3083 3086 3088 3092 3094 3095 3097 3099 3101 3104 3105 3107 3109 3111 3113 3115 3117 3118 3119 3119 3121 3122 3124 3126 3128 3129 3131 3133 3134 3136 3138 3139 3141 3142 3143 3144
3053 3050 3056 3063 3068 3072 3075 3077 3081 3084 3087 3091 3091 3093 3093 3095 3096 3098 3100 3102 3104 3105 3108 3110 3112 3113 3114 3116 3117 3119 3121 3122 3124 3126 3127 3128 3130 3131 3133 3135 3137 3138 3139 3140
3045 3047 3054 3060 3065 3069 3072 3074 3077 3083 3085 3087 3090 3089 3088 3090 3091 3092 3094 3097 3099 3101 3103 3105 3107 3109 3111 3112 3114 3116 3117 3119 3121 3122 3123 3124 3125 3127 3128 3130 3131 3133 3134 3135
3046 3048 3051 3055 3059 3065 3068 3073 3077 3080 3083 3084 3086 3083 3080 3083 3085 3087 3089 3091 3094 3096 3098 3100 3102 3104 3107 3109 3110 3112 3114 3115 3117 3118 3119 3120 3121 3122 3123 3124 3126 3127 3128 3129
3041 3043 3047 3050 3053 3061 3066 3071 3075 3078 3079 3080 3079 3084 3070 3074 3075 3080 3084 3086 3088 3091 3094 3096 3098 3100 3103 3105 3106 3108 3109 3111 3112 3114 3115 3116 3116 3117 3118 3119 3119 3121 3121 3122
3039 3042 3045 3049 3052 3058 3063 3068 3072 3074 3076 3076 3072 3077 3065 3066 3070 3071 3075 3079 3082 3086 3089 3092 3094 3096 3098 3100 3102 3103 3105 3106 3108 3109 3110 3111 3112 3113 3114 3114 3115 3116 3117 3117
3034 3038 3041 3044 3048 3051 3056 3061 3070 3075 3074 3067 3066 3069 3061 3060 3062 3065 3069 3074 3077 3080 3083 3086 3089 3091 3093 3095 3097 3099 3101 3102 3104 3105 3106 3107 3108 3109 3110 3111 3112 3113 3113 3113
3030 3034 3034 3037 3039 3041 3045 3052 3053 3058 3060 3060 3063 3056 3049 3055 3059 3060 3063 3066 3070 3074 3077 3080 3084 3086 3089 3091 3093 3095 3097 3099 3100 3102 3103 3104 3105 3106 3107 3107 3108 3108 3108 3109
3025 3027 3028 3033 3036 3039 3041 3043 3050 3050 3051 3053 3049 3046 3048 3049 3052 3056 3059 3061 3064 3067 3071 3075 3078 3081 3084 3087 3089 3091 3093 3095 3097 3098 3099 3100 3101 3101 3102 3103 3103 3103 3103 3103
3021 3023 3022 3028 3031 3033 3033 3040 3044 3044 3048 3048 3041 3040 3035 3042 3046 3048 3051 3054 3058 3062 3066 3070 3073 3076 3079 3082 3085 3087 3089 3091 3092 3094 3095 3095 3096 3096 3096 3096 3096 3096 3096 3095
3017 3019 3020 3021 3022 3025 3029 3030 3034 3036 3037 3034 3037 3032 3033 3036 3039 3042 3046 3049 3054 3058 3061 3065 3068 3072 3075 3078 3081 3083 3085 3086 3087 3088 3089 3089 3089 3089 3089 3089 3088 3088 3087 3086
3011 3011 3013 3015 3015 3017 3019 3024 3026 3027 3028 3029 3031 3028 3030 3032 3034 3038 3041 3045 3049 3053 3057 3061 3065 3068 3071 3074 3076 3079 3080 3081 3082 3083 3083 3082 3082 3081 3081 3080 3079 3078 3077 3076
3002 3003 3006 3009 3012 3009 3011 3014 3018 3021 3024 3022 3028 3022 3027 3029 3032 3034 3037 3041 3046 3050 3054 3057 3061 3064 3067 3069 3071 3073 3074 3075 3075 3075 3074 3074 3073 3072 3071 3070 3068 3067 3066 3064
2996 2996 2995 2996 2998 3001 3003 3007 3011 3015 3016 3016 3016 3020 3023 3025 3028 3030 3033 3037 3042 3046 3049 3053 3056 3059 3062 3064 3066 3067 3068 3068 3067 3067 3066 3065 3063 3062 3060 3059 3057 3056 3054 3052
2986 2986 2989 2991 2993 2995 2997 2999 3002 3006 3009 3011 3011 3014 3018 3022 3025 3028 3031 3033 3036 3040 3045 3049 3052 3055 3057 3059 3060 3060 3060 3060 3059 3058 3057 3056 3054 3052 3050 3048 3046 3044 3042 3040
2976 2977 2979 2982 2986 2989 2991 2994 2996 2999 3001 3003 3005 3008 3011 3013 3017 3021 3025 3029 3033 3038 3042 3046 3049 3051 3052 3053 3054 3053 3053 3052 3052 3049 3048 3046 3044 3041 3039 3036 3034 3032 3030 3027
2972 2973 2973 2976 2979 2983 2987 2984 2987 2991 2994 2997 2999 3002 3005 3008 3012 3017 3022 3027 3032 3036 3040 3042 3044 3046 3046 3047 3047 3047 3045 3044 3042 3040 3038 3036 3033 3031 3028 3026 3023 3021 3019 3017
2966 2969 2971 2973 2978 2981 2972 2977 2981 2985 2988 2991 2994 2997 3002 3007 3011 3016 3020 3026 3031 3034 3037 3039 3040 3041 3041 3041 3040 3039 3036 3035 3033 3030 3028 3025 3022 3020 3017 3015 3012 3009 3007 3005
2962 2964 2966 2970 2973 2974 2971 2971 2975 2979 2985 2988 2991 2995 2998 3003 3009 3015 3020 3025 3028 3031 3033 3034 3035 3035 3034 3033 3032 3030 3027 3025 3022 3021 3019 3015 3012 3010 3007 3004 3002 2998 2995 2993
2959 2961 2964 2966 2969 2969 2968 2968 2973 2978 2983 2986 2990 2995 2999 3004 3009 3015 3019 3022 3025 3027 3029 3029 3029 3029 3027 3026 3025 3023 3020 3017 3013 3012 3009 3006 3003 3000 2997 2994 2991 2988 2984 2981
2955 2958 2960 2964 2965 2966 2966 2967 2973 2979 2984 2984 2989 2995 3000 3005 3010 3014 3017 3020 3021 3023 3023 3023 3023 3021 3019 3017 3016 3014 3012 3007 3004 3001 2999 2996 2992 2988 2985 2982 2979 2975 2972 2969
2952 2956 2957 2962 2964 2965 2965 2968 2973 2976 2978 2985 2989 2995 3000 3004 3008 3011 3013 3015 3016 3017 3017 3016 3015 3013 3010 3008 3006 3005 3003 2996 2993 2989 2987 2984 2980 2977 2972 2969 2966 2963 2959 2956
2952 2951 2953 2958 2959 2959 2963 2968 2972 2976 2983 2986 2992 2996 3000 3003 3006 3008 3010 3011 3011 3011 3010 3009 3009 3007 3004 2999 2995 2994 2991 2986 2981 2977 2974 2970 2967 2964 2960 2955 2951 2948 2945 2942
2947 2948 2951 2955 2958 2959 2965 2969 2974 2978 2984 2987 2991 2995 2999 3002 3004 3005 3006 3006 3006 3005 3003 3001 3000 2998 2997 2990 2986 2981 2977 2973 2968 2964 2961 2957 2953 2950 2946 2942 2938 2934 2931 2928
2945 2947 2949 2952 2957 2962 2967 2972 2976 2980 2984 2988 2992 2995 2998 3000 3001 3001 3002 3001 3000 2999 2996 2994 2991 2988 2986 2981 2977 2972 2965 2959 2954 2950 2947 2943 2939 2935 2932 2928 2925 2921 2919 2914
2944 2946 2949 2952 2958 2962 2967 2972 2977 2981 2985 2989 2992 2994 2996 2998 2999 2998 2998 2997 2995 2992 2989 2986 2983 2979 2975 2970 2966 2961 2954 2947 2942 2938 2933 2929 2923 2921 2917 2913 2911 2909 2904 2901